Dewpoint
57 57 58 58 58 58 58 58 58 58 58 58 58 58 59 59 58 50 30 38 43 60 54 36 34 34 35 35 35 34 23 19 18 16 11 19 19 21 22 21 19 23 24 24 33
56 57 57 57 58 58 58 58 58 58 58 58 58 58 58 58 45 34 48 54 62 58 35 33 32 32 30 32 34 29 26 20 18 14 14 13 17 19 19 19 17 18 23 26 27
56 57 57 57 57 58 58 58 58 58 58 58 58 58 58 56 34 17 56 59 63 55 34 32 30 31 30 32 32 30 25 20 20 21 19 19 19 19 21 19 16 15 16 19 23
57 57 57 57 58 58 58 59 59 59 58 58 58 58 58 45 17 29 59 62 62 39 33 31 29 29 28 28 26 30 25 27 26 26 26 24 21 21 23 22 21 21 22 22 24
57 57 57 57 58 58 58 59 59 59 59 58 58 58 49 24 20 50 61 61 43 35 31 29 28 27 25 20 26 30 26 23 25 26 29 28 25 22 22 21 21 21 21 21 23
58 58 57 58 58 58 58 59 59 59 58 58 58 57 38 23 34 49 53 51 36 34 31 30 26 26 25 23 23 22 27 25 23 23 24 25 24 22 18 18 17 19 17 17 19
58 57 57 57 58 59 59 58 58 57 58 58 58 51 31 29 37 47 48 42 39 35 32 32 31 28 27 26 26 26 23 21 20 19 21 24 21 20 19 17 17 18 15 15 16
57 57 57 57 58 58 59 58 56 58 57 56 58 46 28 33 37 41 38 36 38 36 34 33 32 30 29 26 25 22 21 20 18 21 22 24 16 16 17 16 15 15 15 18 17
57 57 57 58 58 58 58 56 57 57 57 57 49 40 25 40 30 33 34 30 35 33 33 30 32 28 27 24 20 21 18 19 19 18 20 23 18 18 19 19 18 19 17 17 18
57 57 58 58 58 58 57 51 57 55 54 49 38 29 25 24 34 33 33 33 31 34 31 30 28 25 23 20 18 20 19 18 17 17 20 21 20 20 20 19 18 17 18 19 20
58 58 59 58 58 58 51 45 45 43 40 37 39 34 38 32 34 33 32 31 30 29 25 29 24 22 22 22 21 20 19 18 20 22 22 21 20 19 18 18 18 18 19 19 21
59 59 59 58 58 56 49 43 41 41 40 41 41 39 34 33 30 32 32 28 28 25 27 27 23 24 24 23 23 21 20 20 21 21 21 21 19 19 20 20 20 20 20 21 22
59 59 58 58 57 53 47 44 44 41 39 39 38 37 34 35 36 35 31 29 27 26 26 25 25 25 23 23 22 21 21 20 20 22 20 19 19 22 20 23 21 19 22 25 26
58 58 58 57 52 52 47 45 45 42 35 34 33 30 29 31 31 29 31 30 29 28 29 27 27 25 24 22 22 21 22 22 20 20 19 22 19 22 22 21 19 21 25 27 27
58 58 58 53 53 50 47 45 46 43 29 33 26 33 30 26 25 27 29 29 27 26 25 23 24 24 24 22 23 21 24 20 21 21 23 21 20 21 22 20 18 23 27 29 29
57 57 55 54 53 50 47 46 46 36 30 33 26 27 25 24 24 27 28 28 26 25 25 24 24 22 22 22 24 23 21 21 22 23 23 22 20 20 18 16 19 24 27 29 29
53 55 55 53 49 50 48 49 37 33 35 32 27 24 24 22 23 23 24 24 23 23 24 25 24 24 23 22 24 22 21 23 22 25 26 22 24 23 23 18 20 25 28 28 29
50 54 55 53 50 49 52 43 35 33 32 36 34 32 32 32 29 26 27 27 27 23 25 23 20 25 23 23 25 26 24 25 21 22 24 30 26 25 24 24 27 28 28 29 28
50 51 51 52 51 53 47 37 33 30 31 32 33 30 29 32 31 30 29 28 29 29 24 22 23 29 26 25 23 24 23 25 27 30 27 25 25 27 27 27 28 28 27 26 27
50 49 46 52 52 52 41 35 31 30 35 34 29 27 25 28 30 28 28 29 30 27 26 31 29 30 28 27 25 22 24 26 25 25 22 21 22 19 23 26 29 28 25 24 25
48 41 46 53 54 45 37 33 29 31 38 35 31 29 27 27 29 33 33 34 33 32 30 32 34 28 29 26 25 23 23 24 24 27 25 22 20 27 28 29 28 25 24 22 21
44 34 49 54 41 39 35 32 35 35 37 35 35 34 32 29 29 30 28 28 33 34 31 31 30 29 25 25 26 28 28 27 26 25 25 25 27 31 31 29 26 23 23 22 22
36 38 48 51 34 36 34 32 33 34 33 34 34 35 31 30 29 28 28 30 34 33 32 35 32 27 26 20 32 32 31 31 32 33 30 28 24 30 30 28 27 27 26 22 21
36 29 40 44 40 33 31 29 30 35 33 32 31 32 32 30 30 27 26 29 37 34 40 38 34 30 23 20 24 27 29 31 33 28 27 27 28 28 32 32 30 28 24 21 16
37 27 33 33 37 35 31 27 25 27 31 32 29 30 27 24 23 23 24 26 31 34 31 31 28 28 27 24 24 26 26 26 24 26 25 24 26 25 23 22 22 19 18 19 15
31 31 34 32 32 32 32 29 28 26 27 25 25 23 29 27 26 26 27 27 25 23 23 25 25 25 23 22 21 21 23 23 24 25 24 23 20 19 17 16 15 13 11 9 7
36 35 33 29 30 30 31 31 27 27 28 28 26 26 26 25 27 28 28 28 29 27 25 24 24 23 18 18 17 17 18 15 16 16 15 13 21 22 18 14 13 13 11 10 8
Lifted_Index
9 9 9 9 9 9 9 9 9 9 9 9 9 9 9 9 9 9 10 10 10 10 10 10 9 9 8 8 7 7 5 4 4 4 5 6 6 6 6 5 5 6 6 7 7
9 9 9 9 9 9 9 9 9 9 9 9 9 9 9 9 9 9 10 10 9 10 10 9 9 9 8 7 7 6 5 5 5 5 6 6 6 6 6 5 5 6 6 7 7
10 10 9 9 9 9 8 8 8 8 9 9 9 9 9 9 9 9 10 9 9 10 10 9 9 8 8 7 7 6 6 6 6 6 6 6 6 6 5 5 5 6 6 7 7
9 9 9 9 9 8 8 8 8 8 8 9 9 9 9 9 8 9 8 7 8 10 10 9 9 8 7 7 7 6 6 6 7 7 7 6 6 6 6 5 6 6 6 6 6
9 9 9 9 9 8 8 8 8 8 8 9 9 9 9 8 8 8 7 7 9 10 10 9 9 8 7 7 7 7 7 7 7 7 7 6 6 6 6 6 6 6 7 7 7
9 9 9 8 8 8 8 8 8 8 9 9 9 8 7 7 8 7 7 7 9 10 9 9 9 8 8 8 7 7 7 7 7 7 7 7 6 6 6 7 7 7 7 7 7
8 8 7 7 7 7 7 7 8 8 8 8 8 8 7 7 8 8 7 8 9 10 9 9 9 9 8 8 8 8 7 6 6 7 7 7 6 6 7 7 7 7 6 7 7
7 7 6 6 6 6 6 6 6 7 7 8 8 8 7 7 8 8 8 9 9 10 10 10 9 9 8 8 7 7 6 6 6 7 8 7 6 6 7 7 7 6 6 7 7
6 5 5 5 5 5 5 5 5 6 7 7 8 7 7 8 8 9 9 9 9 10 10 10 9 8 7 6 6 6 5 6 6 7 8 8 7 7 7 7 6 6 6 7 7
5 5 5 5 5 5 5 5 5 5 6 7 7 6 7 7 8 8 9 9 9 9 8 8 8 7 6 5 5 5 5 6 6 7 7 8 8 8 7 7 6 6 6 7 8
4 4 4 4 5 5 5 4 5 5 6 6 6 6 6 6 6 7 8 8 8 7 7 7 6 5 5 5 5 5 5 6 6 7 7 7 8 8 7 7 6 6 7 8 8
4 4 4 4 4 5 5 5 5 6 6 6 5 5 5 5 5 6 7 7 6 6 6 6 6 6 6 6 6 6 6 6 6 7 7 7 7 7 7 6 6 6 7 9 9
3 4 4 4 5 5 5 5 6 6 6 6 6 6 6 5 5 6 6 6 6 6 6 6 6 6 6 6 5 6 6 6 6 6 7 6 6 6 6 6 6 7 8 9 9
3 3 4 4 5 5 5 5 6 6 5 5 6 7 7 6 6 6 7 6 5 5 5 5 5 5 5 5 5 5 5 5 5 5 5 5 5 5 5 6 6 7 8 8 8
3 3 4 4 4 5 5 5 5 5 4 4 6 7 7 7 7 7 8 7 6 5 5 5 5 5 5 5 4 4 4 4 4 4 4 4 4 4 5 5 6 7 7 7 7
4 4 4 4 4 4 5 5 4 4 3 4 4 5 5 6 6 6 6 6 5 4 4 4 5 4 4 4 4 4 4 4 3 3 3 3 3 4 4 5 6 6 5 5 5
4 4 4 4 4 4 5 4 3 3 4 4 4 4 4 4 4 4 4 4 4 4 4 4 4 4 4 4 4 4 3 3 2 2 2 2 3 4 4 4 5 4 4 4 4
5 5 5 5 5 4 4 4 3 4 4 4 4 3 3 3 2 2 2 3 3 3 4 4 4 4 4 4 4 3 3 2 1 1 2 2 3 3 4 4 4 4 4 4 4
6 5 5 5 5 4 4 4 4 4 4 4 4 3 3 3 3 3 3 3 3 3 3 3 3 3 3 3 3 3 2 2 1 1 2 2 3 3 3 4 4 4 4 4 5
5 5 5 5 5 5 4 5 5 4 4 4 4 4 3 3 3 3 3 3 3 3 3 3 3 3 3 3 3 2 2 2 1 1 1 2 2 2 3 3 3 3 4 5 5
5 5 6 6 5 5 5 5 5 5 5 4 4 4 3 3 3 3 3 3 3 3 3 2 3 3 4 3 3 2 2 2 1 1 0 1 1 2 2 2 2 2 3 4 4
6 6 6 6 6 6 6 6 6 6 5 4 4 3 3 3 3 3 3 3 3 3 3 2 2 3 4 3 3 2 2 1 1 0 0 0 0 1 1 1 1 2 2 3 4
6 7 7 6 6 6 6 6 6 5 5 4 4 3 3 3 3 3 3 3 3 3 3 2 2 3 3 3 2 1 1 1 0 0 0 0 0 0 1 1 2 2 3 4 5
7 7 7 6 6 6 6 6 5 5 5 4 4 4 4 4 4 4 4 4 4 4 3 3 3 3 3 3 2 1 1 1 1 0 0 0 0 1 1 2 3 4 5 5 6
8 8 8 7 6 6 5 6 5 5 5 5 5 4 4 4 5 5 5 4 4 4 4 4 3 3 3 3 2 2 2 2 2 1 1 1 1 2 2 3 4 4 5 6 7
10 9 9 7 6 6 5 6 6 6 6 6 6 5 5 5 5 6 6 5 5 5 5 4 4 3 3 3 3 3 3 3 3 2 2 2 2 3 3 3 4 4 5 6 7
11 10 9 8 7 6 5 5 6 6 6 6 6 6 6 6 6 6 6 6 6 6 6 5 4 4 3 4 4 4 4 4 4 4 3 3 3 3 3 3 4 4 5 6 7